NOAA 16 DEB

Satellite information

Favourite Embed

Satellite Type and Status

DEBRISIN ORBIT

Key statistics

Satellite NOAA 16 DEB at a glance.

Uptime

9117

Days in orbit

Revolutions

≈ 14.5

Per day

Orbit

SSO

Sun Synchronous Orbit

Inclination

98.8

Latest

Satellite identification and parameters

Extended collection of information and parameters for NOAA 16 DEB.

Object identification

Identified? True

Debris? True

Object name: NOAA 16 DEB

International designator: 2000-055PM

Object number (NORAD): 41707

Object ID (CCSDS): 41707

Country: UNITED STATES OF AMERICA (US)

Current information (Y/N): Y

RCS size: SMALL

Orbital parameters

Period: 99.587 minutes

Inclination: 98.8353 deg

SMA: 7116.951 km

Apoapsis: 755.359 km

Periapsis: 722.274 km

RAAN: 19.003 deg

Eccentricy: 0.00232435

Argument of periapsis: 267.8798 deg

Mean anomaly: 91.9731 deg

Mean motion: 14.45978304 rev/day

Mean motion (dot): 0.0001706 rev/day2

B* drag term: 0.0047771049 1/REarth

Two-line elements (TLE)

Creation date: Sept. 4, 2025, 4:29 a.m.

Reference frame: TEME

Reference center: EARTH

Epoch: Sept. 3, 2025, 2:10 p.m. UTC

TLE line 0: 0 NOAA 16 DEB

TLE line 1: 1 41707U 00055PM 25246.59050319 .00017060 00000-0 47771-2 0 9992

TLE line 2: 2 41707 98.8353 19.0030 0023244 267.8798 91.9731 14.45978304487422

Live tracking on map

Real-time ground track for satellite NOAA 16 DEB.

In-orbit conjunctions

A list of the most updated potential collisions computed for object NOAA 16 DEB.

Target Orbit TCA Probability of collision Miss distance Type
IRIDIUM 911 LEO 2025-08-23 20:12:47 0.0001368623 886.0 (m) PAYLOAD
COSMOS 1125 LEO 2024-08-17 00:04:08 0.0002607833 349.0 (m) PAYLOAD

Associated space launch

The NOAA K, L and M POES satellites begin the fifth generation of improved environmental monitoring in support of NOAA missions. The instrument payload has significant improvements and additions/deletions. The instrument changes have effected the spacecraft subsystems and data formats.

NOAA 16 DEB was lifted into orbit during the mission ‘Titan II SLV | NOAA 16’, on board a Titan II SLV space rocket.

The launch took place on Sept. 21, 2000, 10:22 a.m. from Space Launch Complex 4W.

For more information about the launch, click the button.

Launch to space Titan II SLV | NOAA 16
Titan II SLV | NOAA 16

Agency: N/A

Status: Launch Successful

Launch date: Sept. 21, 2000, 10:22 a.m. UTC

Rocket: Titan II SLV

Launch pad: Space Launch Complex 4W

Location: Vandenberg SFB, CA, USA

...

Latest news about this satellite

There are no fresh news available about this satellite. Check back as we update our databases every day.


Newsletter sign-up

Weekly statistics, charts and insights to help you stay on top of the space industry.